Regional Weather Roundup
Issued by NWS Green Bay, WI

Home | Current Version | Previous Version | Text Only | Print | Product List | Glossary On
Versions: 1 2 3 4 5 6 7 8 9 10 11 12 13 14 15 16 17 18 19 20 21 22 23 24 25 26 27 28 29 30 31 32 33 34 35 36 37 38 39 40 41 42 43 44 45 46 47 48 49 50
000
ASUS43 KGRB 010810
RWRGRB

NORTH-CENTRAL AND NORTHEAST WISCONSIN REGIONAL WEATHER ROUNDUP
NATIONAL WEATHER SERVICE GREEN BAY WI
200 AM CST SUN FEB 01 2015

WIZ005-009-010>012-018-019-010900-
NORTH CENTRAL WISCONSIN

CITY           SKY/WX    TMP DP  RH WIND       PRES   REMARKS
IRONWOOD       CLOUDY     5   0  78 E10       30.31R WCI -10
MANITOWISH WTR CLOUDY     3  -3  77 NE7       30.28S WCI  -9
ARBOR VITAE    MOCLDY     6   0  76 NE6       30.27R WCI  -5
EAGLE RIVER    CLOUDY     5  -3  70 NE6       30.27S WCI  -6
LAND O LAKES   CLOUDY     4  -1  80 N3        30.29R
RHINELANDER    CLOUDY     5  -1  76 NE8       30.26S WCI  -8
PHILLIPS       CLOUDY     8   1  75 NE13      30.25R WCI  -8
ANTIGO         CLOUDY     8   1  73 NE14      30.24S WCI  -9
TOMAHAWK       CLOUDY     8   1  72 NE8G17    30.26R WCI  -4
MERRILL        CLOUDY    12   5  71 E13       30.24S WCI  -2
$$

WIZ013-073-010900-
NORTHEAST WISCONSIN

CITY           SKY/WX    TMP DP  RH WIND       PRES   REMARKS
IRON MOUNTAIN  CLOUDY     7   0  73 NW7       30.30S WCI  -5
MARINETTE      CLOUDY    10   3  72 N9        30.31F WCI  -2
OCONTO         CLOUDY    13   4  69 MISG      30.31S
$$

WIZ017-030-035>037-045-010900-
CENTRAL WISCONSIN

CITY           SKY/WX    TMP DP  RH WIND       PRES   REMARKS
MEDFORD        CLOUDY    12   4  71 NE14      30.20S WCI  -3
WAUSAU         CLOUDY    14   6  70 E15       30.22S WCI  -1
MOSINEE        CLOUDY    14  10  85 NE17      30.22R WCI  -3
MARSHFIELD     LGT SNOW  17   9  70 E16       30.19R WCI   2
WISC RAPIDS    LGT SNOW  17  12  80 E15       30.22R WCI   2
STEVENS POINT  CLOUDY    13   6  73 NE17G24   30.23R WCI  -4
WAUPACA        LGT SNOW  16   8  70 NE12      30.26R WCI   3
SHAWANO        CLOUDY    15   5  63 NE15      30.29S WCI   0
CLINTONVILLE   CLOUDY    14   3  62 NE12      30.27F WCI   0
$$

WIZ038-039-048-051-010900-
FOX VALLEY

CITY           SKY/WX    TMP DP  RH WIND       PRES   REMARKS
NWS GREEN BAY  CLOUDY    15   6  67 NE23      30.28F WCI  -3
APPLETON       CLOUDY    14   5  67 NE18G25   30.24S HAZE    WCI  -3
OSHKOSH        LGT SNOW  15  11  83 NE18G24   30.22F FOG     WCI  -2
FOND DU LAC    LGT SNOW  18  13  80 NE16      30.21F WCI   3
$$

WIZ022-050-052-010900-
EAST CENTRAL WISCONSIN

CITY           SKY/WX    TMP DP  RH WIND       PRES   REMARKS
STURGEON BAY   CLOUDY    12   5  73 N15       30.30F WCI  -4
MANITOWOC      FLURRIES  17  11  77 N10G17    30.24  WCI   5
SHEBOYGAN      LGT SNOW  19  16  88 N12       30.20F VSB 1   WCI   7
$$

LMZ563-521-522-541>543-010900-
LAKESHORE

STATION/POSITION TIME  TEMP    WIND        PRES    VSBY  WAVE
                       AIR SEA DIR/SP/G                  HT/PER
                 (UTC) (F)     (DEG/KT/KT) (MB)    (MI)  (FT/S)
SHEBOYGAN LKSHOR 0800   24      40/ 23/ 26 1024.0F
KEWAUNEE LKSHORE 0800   15      10/ 10/ 14 1024.3F
NORTHPORT PIER   0800   15     360/ 13/ 16 1026.8R
SISTER BAY LKSHO 0700   13      10/ 14/ 15   N/A
CHAMBERS ISLAND  0800   12     330/ 13/ 17 1026.8F
MENOMINEE LKSHOR 0800   12     350/ 13     1027.3F
$$



USA.gov is the U.S. government's official web portal to all federal, state and local government web resources and services.